Home > Weather > Oberpullendorf > Past weeks

Flag for Austria Past Weather in Oberpullendorf, Burgenland, Austria — Yesterday and Last 2 Weeks

Now
82 °F

Warm.


Feels Like: 84 °F
Forecast: 66 / 82 °F
Wind: 1 mph from Northeast

Location: Eisenstadt

Current Time: Jul 24, 2016 at 6:37:12 PM

Latest Report: Jul 24, 2016 at 6:00 PM


Visibility: N/A

Pressure: 29.98 "Hg

Humidity: 60%

Dew Point: 67 °F

Location of OberpullendorfLocation

Past Weather in Oberpullendorf — Graph

°F

Oberpullendorf Temperature Yesterday

Maximum temperature yesterday: 85 °F (at 5:00 PM)
Minimum temperature yesterday: 66 °F (at 4:00 AM)
Average temperature yesterday: 75 °F

High & Low Weather Summary for the Past Weeks

 TemperatureHumidityPressure
High93 °F (Jul 11, 2:00 PM)95% (Jul 23, 2:00 AM)30.19 "Hg (Jul 23, 2:00 AM)
Low56 °F (Jul 14, 7:00 AM)35% (Jul 11, 2:00 PM)29.73 "Hg (Jul 14, 7:00 AM)
Average71 °F67%29.99 "Hg
* Reported Jul 9 4:00 PM — Jul 24 4:00 PM, Oberpullendorf, Weather by CustomWeather, © 2016

Note: Actual official high and low records may vary slightly from our data, if they occured in-between our weather recording intervals... More about our weather records

Advertising

Oberpullendorf Weather History for the Previous 24 Hours

Scroll right to see more
 ConditionsComfort  
Time TempWeatherWind HumidityBarometerVisibility
4:00 PM
Sun, Jul 24
84 °FWarm.5 mph48%29.99 "HgN/A
3:00 PM84 °FWarm.3 mph51%30.00 "HgN/A
2:00 PM82 °FWarm.6 mph53%30.01 "HgN/A
1:00 PM82 °FWarm.5 mph56%30.01 "HgN/A
12:00 PM81 °FWarm.2 mph58%30.01 "HgN/A
11:00 AM77 °FWarm.1 mph67%30.03 "HgN/A
10:00 AM77 °FWarm.3 mph66%30.01 "HgN/A
9:00 AM74 °FMild.3 mph72%30.02 "HgN/A
8:00 AM71 °FPartly sunny.5 mph81%30.01 "Hg12 mi
7:00 AM69 °FOvercast.6 mph88%30.00 "Hg9 mi
6:00 AM69 °FOvercast.5 mph88%30.00 "Hg9 mi
5:00 AM71 °FOvercast.6 mph84%29.99 "Hg9 mi
4:00 AM72 °FOvercast.6 mph83%29.99 "Hg9 mi
3:00 AM71 °FMild.5 mph92%29.98 "HgN/A
2:00 AM71 °FOvercast.5 mph89%29.98 "Hg9 mi
1:00 AM70 °FMild.3 mph89%29.98 "HgN/A
12:00 AM70 °FMild.3 mph89%29.98 "HgN/A
9:00 PM
Sat, Jul 23
73 °FMild.5 mph82%29.96 "HgN/A
8:00 PM76 °FScattered clouds.2 mph77%29.96 "Hg12 mi
7:00 PM83 °FPassing clouds.2 mph52%29.94 "Hg12 mi
6:00 PM85 °FWarm.3 mph51%29.95 "HgN/A
Weather by CustomWeather, © 2016

See weather overviewHow to use our weather pages